Wellsville, NY

9:37 PM EST on January 19, 2018 (GMT -0500)
Wellsville Municipal-Tarantine

Weather History for KELZ - March, 2013

Change the Weather History Date:

Tuesday, March 19, 2013

  Actual Average (KDSV) Record (KDSV)
Temperature  
Mean Temperature 27 °F -  
Max Temperature 34 °F 40 °F 79 °F (2012)
Min Temperature 21 °F 21 °F -6 °F (1967)
Degree Days  
Heating Degree Days 38    
Moisture  
Dew Point 22 °F    
Average Humidity 78    
Maximum Humidity 93    
Minimum Humidity 54    
Precipitation  
Precipitation 0.06 in - - ()
Sea Level Pressure  
Sea Level Pressure 29.71 in    
Wind  
Wind Speed 12 mph (WSW)    
Max Wind Speed 21 mph    
Max Gust Speed 32 mph    
Visibility 5 miles    
Events Fog , Rain , Snow    
Averages and records for this station are not official NWS values.
T = Trace of Precipitation, MM = Missing Value Source: NWS Daily Summary

Daily Weather History Graph

Daily Weather History Graph

Search for Another Location

Airport or City:

Trip Planner

Search our weather history database for the weather conditions in past years. The results will help you decide how hot, cold, wet, or windy it might be!

Date:

Astronomy

Mar. 19, 2013 Rise Set
Actual Time 7:16 AM EDT 7:23 PM EDT
Civil Twilight 6:48 AM EDT 7:51 PM EDT
Nautical Twilight 6:16 AM EDT 8:23 PM EDT
Astronomical Twilight 5:42 AM EDT 8:57 PM EDT
Moon 11:59 AM EDT (3/19) 2:14 AM EDT (3/19)
Length of Visible Light 13h 02m
Length of Day
12h 06m
Waxing Crescent, 49% of the Moon is Illuminated
Mar 19
Waxing Crescent
Mar 19
First Quarter
Mar 27
Full
Apr 3
Last Quarter
Apr 10
New

Hourly Weather History & Observations

Time (EDT) Temp. Windchill Dew Point Humidity Pressure Visibility Wind Dir Wind Speed Gust Speed Precip Events Conditions
12:10 AM 30.2 °F 17.4 °F 24.8 °F 80% 29.70 in 10.0 mi SSE 20.7 mph 32.2 mph 0.00 in   Overcast
12:56 AM 30.0 °F 21.1 °F 26.1 °F 85% 29.77 in 8.0 mi SSE 10.4 mph 23.0 mph 0.00 in   Overcast
1:07 AM 30.2 °F 20.8 °F 26.6 °F 86% 29.68 in 8.0 mi SSE 11.5 mph 21.9 mph 0.00 in Rain Light Freezing Rain
1:21 AM 30.2 °F 20.2 °F 26.6 °F 86% 29.68 in 10.0 mi SSE 12.7 mph 20.7 mph 0.00 in Rain Light Freezing Rain
1:30 AM 30.2 °F 19.8 °F 26.6 °F 86% 29.67 in 10.0 mi SSE 13.8 mph - 0.00 in   Overcast
1:56 AM 30.0 °F 18.7 °F 26.1 °F 85% 29.75 in 10.0 mi South 16.1 mph 24.2 mph 0.00 in   Overcast
2:56 AM 30.0 °F 19.5 °F 27.0 °F 88% 29.72 in 10.0 mi South 13.8 mph 25.3 mph N/A   Overcast
3:56 AM 30.9 °F 22.2 °F 28.0 °F 89% 29.72 in 10.0 mi SSE 10.4 mph - N/A   Overcast
4:27 AM 30.2 °F 22.6 °F 28.4 °F 93% 29.64 in 4.0 mi SSE 8.1 mph 19.6 mph 0.00 in Rain Light Freezing Rain
4:56 AM 30.0 °F 24.1 °F 28.0 °F 92% 29.71 in 8.0 mi Variable 5.8 mph - 0.00 in Rain Light Freezing Rain
5:06 AM 30.2 °F 23.4 °F 28.4 °F 93% 29.64 in 7.0 mi Variable 6.9 mph - 0.00 in   Overcast
5:56 AM 30.9 °F 25.2 °F 28.0 °F 89% 29.73 in 6.0 mi Variable 5.8 mph - 0.00 in   Overcast
6:56 AM 30.9 °F 24.3 °F 28.0 °F 89% 29.75 in 7.0 mi SW 6.9 mph - 0.00 in Snow Light Snow
7:45 AM 30.2 °F 24.3 °F 28.4 °F 93% 29.67 in 2.5 mi SSW 5.8 mph - 0.00 in Snow Light Snow
7:54 AM 30.2 °F 23.4 °F 28.4 °F 93% 29.67 in 3.0 mi SW 6.9 mph - 0.00 in Snow Light Snow
7:56 AM 30.9 °F 23.5 °F 28.9 °F 92% 29.75 in 3.0 mi SW 8.1 mph - 0.00 in Snow Light Snow
8:03 AM 32.0 °F 24.8 °F 28.4 °F 87% 29.68 in 2.0 mi SW 8.1 mph - 0.00 in Snow Light Snow
8:11 AM 32.0 °F 24.2 °F 28.4 °F 87% 29.67 in 3.0 mi WSW 9.2 mph - 0.00 in Snow Light Snow
8:26 AM 32.0 °F 25.6 °F 28.4 °F 87% 29.67 in 10.0 mi WSW 6.9 mph - 0.00 in   Overcast
8:56 AM 32.0 °F 23.6 °F 26.1 °F 79% 29.74 in 10.0 mi WSW 10.4 mph - 0.00 in   Overcast
9:56 AM 32.0 °F 21.6 °F 24.1 °F 73% 29.73 in 10.0 mi WSW 15.0 mph 23.0 mph N/A   Overcast
10:56 AM 33.1 °F 25.5 °F 25.0 °F 72% 29.71 in 10.0 mi West 9.2 mph - N/A   Overcast
11:14 AM 33.8 °F 25.8 °F 24.8 °F 70% 29.64 in 10.0 mi WSW 10.4 mph 20.7 mph N/A   Overcast
11:45 AM 32.0 °F 24.8 °F 26.6 °F 80% 29.64 in 2.0 mi SW 8.1 mph - 0.00 in Snow Light Snow
11:52 AM 32.0 °F 26.4 °F 26.6 °F 80% 29.64 in 1.0 mi Variable 5.8 mph - 0.00 in Snow Light Snow
11:56 AM 32.0 °F 26.4 °F 28.0 °F 85% 29.71 in 0.8 mi SW 5.8 mph - 0.00 in Snow Light Snow
12:06 PM 32.0 °F 25.6 °F 28.4 °F 87% 29.64 in 1.2 mi Variable 6.9 mph - 0.00 in Snow Light Snow
12:12 PM 32.0 °F 25.6 °F 28.4 °F 87% 29.64 in 3.0 mi Variable 6.9 mph - 0.00 in Snow Light Snow
12:56 PM 32.0 °F 22.1 °F 27.0 °F 82% 29.70 in 1.0 mi WNW 13.8 mph - 0.01 in Snow Light Snow
1:02 PM 30.2 °F 21.3 °F 26.6 °F 86% 29.64 in 0.5 mi West 10.4 mph - 0.04 in Fog , Snow Snow
1:05 PM 30.2 °F 21.9 °F 28.4 °F 93% 29.64 in 0.5 mi WNW 9.2 mph - 0.04 in Fog , Snow Light Snow
1:13 PM 33.8 °F 25.3 °F 28.4 °F 81% 29.64 in 2.5 mi West 11.5 mph - 0.04 in Snow Light Snow
1:20 PM 33.8 °F 25.8 °F 26.6 °F 75% 29.64 in 9.0 mi West 10.4 mph 20.7 mph 0.04 in Snow Light Snow
1:26 PM 33.8 °F 26.4 °F 24.8 °F 70% 29.64 in 2.5 mi West 9.2 mph 20.7 mph 0.04 in Snow Light Snow
1:32 PM 32.0 °F 20.1 °F 24.8 °F 75% 29.64 in 0.8 mi West 19.6 mph 25.3 mph 0.04 in Snow Light Snow
1:48 PM 32.0 °F 22.1 °F 26.6 °F 80% 29.65 in 2.0 mi West 13.8 mph 21.9 mph 0.04 in Snow Light Snow
1:56 PM 32.0 °F 21.2 °F 25.0 °F 75% 29.71 in 3.0 mi WNW 16.1 mph 26.5 mph 0.04 in Snow Light Snow
2:21 PM 30.2 °F 18.9 °F 23.0 °F 75% 29.64 in 1.8 mi West 16.1 mph 27.6 mph 0.00 in Snow Light Snow
2:32 PM 30.2 °F 20.2 °F 23.0 °F 75% 29.65 in 3.0 mi West 12.7 mph 19.6 mph 0.00 in Snow Light Snow
2:56 PM 33.1 °F 23.0 °F 18.0 °F 54% 29.71 in 10.0 mi WSW 15.0 mph 31.1 mph 0.00 in   Overcast
3:17 PM 28.4 °F 15.1 °F 21.2 °F 74% 29.67 in 1.8 mi NW 20.7 mph 24.2 mph 0.00 in Snow Light Snow
3:20 PM 28.4 °F 16.2 °F 23.0 °F 80% 29.67 in 1.0 mi NW 17.3 mph - 0.00 in Snow Light Snow
3:23 PM 26.6 °F 13.8 °F 23.0 °F 86% 29.68 in 0.8 mi WNW 17.3 mph - 0.00 in Snow Light Snow
3:37 PM 26.6 °F 13.4 °F 21.2 °F 80% 29.68 in 1.0 mi WNW 18.4 mph 26.5 mph 0.00 in Snow Light Snow
3:45 PM 26.6 °F 14.7 °F 21.2 °F 80% 29.68 in 1.5 mi WNW 15.0 mph 24.2 mph 0.00 in Snow Light Snow
3:53 PM 26.6 °F 16.8 °F 19.4 °F 74% 29.68 in 3.0 mi West 10.4 mph 21.9 mph 0.00 in Snow Light Snow
3:54 PM 27.0 °F 16.1 °F 19.9 °F 75% 29.75 in 4.0 mi West 12.7 mph 20.7 mph 0.00 in Snow Light Snow
4:01 PM 28.4 °F 18.5 °F 19.4 °F 69% 29.68 in 8.0 mi West 11.5 mph 21.9 mph 0.00 in Snow Light Snow
4:11 PM 26.6 °F 13.4 °F 19.4 °F 74% 29.69 in 1.2 mi WNW 18.4 mph 21.9 mph 0.00 in Snow Light Snow
4:16 PM 24.8 °F 10.3 °F 21.2 °F 86% 29.70 in 0.2 mi WNW 20.7 mph 28.8 mph 0.00 in Fog , Snow Heavy Snow
4:25 PM 24.8 °F 12.4 °F 21.2 °F 86% 29.70 in 0.2 mi West 15.0 mph 26.5 mph 0.01 in Fog , Snow Heavy Snow
4:31 PM 24.8 °F 13.4 °F 21.2 °F 86% 29.71 in 0.5 mi West 12.7 mph 21.9 mph 0.01 in Fog , Snow Snow
4:40 PM 24.8 °F 11.5 °F 19.4 °F 80% 29.71 in 1.0 mi West 17.3 mph 31.1 mph 0.01 in Snow Light Snow
4:44 PM 24.8 °F 11.5 °F 17.6 °F 74% 29.71 in 2.5 mi West 17.3 mph 28.8 mph 0.01 in Snow Light Snow
4:51 PM 26.6 °F 14.3 °F 15.8 °F 64% 29.71 in 9.0 mi West 16.1 mph 25.3 mph 0.01 in   Overcast
4:56 PM 26.1 °F 14.5 °F 16.0 °F 66% 29.79 in 10.0 mi West 13.8 mph 26.5 mph 0.01 in   Overcast
5:20 PM 24.8 °F 10.7 °F 15.8 °F 69% 29.73 in 1.2 mi West 19.6 mph 28.8 mph 0.00 in Snow Light Snow
5:24 PM 24.8 °F 13.4 °F 17.6 °F 74% 29.72 in 0.8 mi West 12.7 mph 28.8 mph 0.00 in Snow Light Snow
5:30 PM 26.6 °F 14.7 °F 15.8 °F 64% 29.73 in 2.0 mi West 15.0 mph 24.2 mph 0.00 in Snow Light Snow
5:37 PM 26.6 °F 13.8 °F 12.2 °F 55% 29.72 in 9.0 mi West 17.3 mph 26.5 mph 0.00 in   Overcast
5:56 PM 26.1 °F 15.0 °F 12.0 °F 55% 29.80 in 10.0 mi West 12.7 mph 23.0 mph 0.00 in   Overcast
6:56 PM 24.1 °F 10.1 °F 15.1 °F 69% 29.83 in 10.0 mi West 18.4 mph 27.6 mph 0.00 in   Mostly Cloudy
7:13 PM 24.8 °F 12.9 °F 15.8 °F 69% 29.76 in 1.5 mi West 13.8 mph 20.7 mph 0.00 in Snow Light Snow
7:21 PM 21.2 °F 14.9 °F 17.6 °F 86% 29.76 in 0.5 mi West 4.6 mph 20.7 mph 0.00 in Fog , Snow Snow
7:28 PM 21.2 °F 9.5 °F 17.6 °F 86% 29.76 in 2.0 mi West 11.5 mph 19.6 mph 0.00 in Snow Light Snow
7:31 PM 23.0 °F 11.7 °F 15.8 °F 74% 29.76 in 4.0 mi West 11.5 mph 19.6 mph 0.00 in Snow Light Snow
7:56 PM 21.9 °F 11.0 °F 15.1 °F 75% 29.84 in 10.0 mi West 10.4 mph 23.0 mph 0.00 in   Overcast
8:53 PM 21.2 °F 8.3 °F 12.2 °F 68% 29.77 in 10.0 mi West 13.8 mph 20.7 mph N/A   Overcast
8:56 PM 21.9 °F 11.0 °F 12.9 °F 68% 29.84 in 10.0 mi West 10.4 mph 20.7 mph N/A   Overcast
9:07 PM 21.2 °F 10.1 °F 12.2 °F 68% 29.77 in 10.0 mi West 10.4 mph - N/A   Overcast
9:24 PM 21.2 °F 8.9 °F 12.2 °F 68% 29.77 in 10.0 mi West 12.7 mph 23.0 mph N/A   Overcast
9:39 PM 21.2 °F 7.8 °F 12.2 °F 68% 29.77 in 10.0 mi West 15.0 mph 19.6 mph N/A   Overcast
9:56 PM 21.9 °F 11.7 °F 12.9 °F 68% 29.84 in 10.0 mi WSW 9.2 mph 21.9 mph N/A   Overcast
10:24 PM 21.2 °F 10.9 °F 12.2 °F 68% 29.76 in 10.0 mi WSW 9.2 mph 18.4 mph N/A   Overcast
10:31 PM 21.2 °F 10.1 °F 12.2 °F 68% 29.76 in 9.0 mi WSW 10.4 mph 18.4 mph 0.00 in Snow Light Snow
10:56 PM 21.9 °F 11.7 °F 14.0 °F 72% 29.83 in 4.0 mi WSW 9.2 mph - 0.00 in Snow Light Snow
11:17 PM 21.2 °F 7.8 °F 15.8 °F 80% 29.75 in 2.0 mi WSW 15.0 mph 21.9 mph 0.00 in Snow Light Snow
11:24 PM 21.2 °F 10.9 °F 15.8 °F 80% 29.75 in 1.5 mi WSW 9.2 mph 21.9 mph 0.00 in Snow Light Snow
11:41 PM 21.2 °F 11.7 °F 17.6 °F 86% 29.76 in 1.2 mi West 8.1 mph - 0.00 in Snow Light Snow
11:56 PM 21.0 °F 12.4 °F 17.1 °F 85% 29.84 in 0.8 mi West 6.9 mph 16.1 mph 0.00 in Snow Light Snow